Change the Weather History Date:

Wednesday, October 31, 2012

  Actual Average Record
Temperature  
Mean Temperature 40 °F 49 °F  
Max Temperature 41 °F 58 °F 80 °F (1950)
Min Temperature 38 °F 40 °F 20 °F (1909)
Degree Days  
Heating Degree Days 25 16  
Month to date heating degree days 390 357  
Since 1 July heating degree days 500 447  
Cooling Degree Days 0 0  
Month to date cooling degree days 9 10  
Year to date cooling degree days 1264 891  
Moisture  
Dew Point 37 °F    
Average Humidity 93    
Maximum Humidity 100    
Minimum Humidity 85    
Precipitation  
Precipitation 0.07 in 0.10 in 1.33 in (1941)
Month to date precipitation 3.81 2.93  
Year to date precipitation 28.03 34.54  
Snow  
Snow 0.00 in 0.00 in 0.40 in (1993)
Month to date snowfall 0.7 0.4  
Since 1 July snowfall 0.7 0.4  
Since 1 September snowfall 0.7 0.4  
Snow Depth 0.00 in    
Sea Level Pressure  
Sea Level Pressure 29.70 in    
Wind  
Wind Speed 15 mph (WNW)    
Max Wind Speed 23 mph    
Max Gust Speed 29 mph    
Visibility 7 miles    
Events Rain    
T = Trace of Precipitation, MM = Missing Value Source: NWS Daily Summary

Daily Weather History Graph

Daily Weather History Graph

Search for Another Location

Airport or City:

Trip Planner

Search our weather history database for the weather conditions in past years. The results will help you decide how hot, cold, wet, or windy it might be!

Date:

Astronomy

Oct. 31, 2012 Rise Set
Actual Time 8:05 AM EDT 6:35 PM EDT
Civil Twilight 7:37 AM EDT 7:03 PM EDT
Nautical Twilight 7:05 AM EDT 7:35 PM EDT
Astronomical Twilight 6:33 AM EDT 8:06 PM EDT
Moon 7:45 PM EDT (10/31) 9:45 AM EDT (10/31)
Length of Visible Light 11h 26m
Length of Day
10h 29m
Full, 97% of the Moon is Illuminated
Oct 31
Full
Nov 6
Last Quarter
Nov 13
New
Nov 20
First Quarter
Nov 28
Full

Hourly Weather History & Observations

Time (EDT) Temp. Windchill Dew Point Humidity Pressure Visibility Wind Dir Wind Speed Gust Speed Precip Events Conditions
12:56 AM 39.0 °F 31.0 °F 37.0 °F 93% 29.63 in 6.0 mi WNW 13.8 mph - N/A   Overcast
1:07 AM 39.2 °F 30.8 °F 37.4 °F 93% 29.61 in 5.0 mi WNW 15.0 mph 21.9 mph N/A   Overcast
1:46 AM 39.2 °F 30.8 °F 37.4 °F 93% 29.60 in 10.0 mi WNW 15.0 mph - N/A   Overcast
1:56 AM 37.9 °F 29.2 °F 37.0 °F 97% 29.62 in 7.0 mi WNW 15.0 mph - N/A   Overcast
2:56 AM 39.0 °F 30.3 °F 36.0 °F 89% 29.63 in 10.0 mi WNW 16.1 mph - N/A   Overcast
3:56 AM 39.0 °F 30.3 °F 36.0 °F 89% 29.64 in 10.0 mi WNW 16.1 mph - N/A   Overcast
4:37 AM 39.2 °F 30.8 °F 35.6 °F 87% 29.62 in 10.0 mi WNW 15.0 mph - N/A   Overcast
4:56 AM 37.9 °F 29.6 °F 36.0 °F 93% 29.64 in 10.0 mi WNW 13.8 mph - 0.00 in Rain Light Rain
5:56 AM 37.9 °F 29.6 °F 37.0 °F 97% 29.66 in 8.0 mi WNW 13.8 mph - 0.00 in   Overcast
6:18 AM 37.4 °F 29.8 °F 37.4 °F 100% 29.64 in 9.0 mi WNW 11.5 mph - N/A   Overcast
6:56 AM 37.9 °F 30.5 °F 37.0 °F 97% 29.66 in 5.0 mi WNW 11.5 mph - 0.00 in Rain Light Rain
7:25 AM 37.4 °F 29.3 °F 37.4 °F 100% 29.65 in 6.0 mi WNW 12.7 mph - 0.00 in   Overcast
7:56 AM 37.9 °F 30.9 °F 37.0 °F 97% 29.67 in 9.0 mi WNW 10.4 mph - 0.01 in   Overcast
8:21 AM 37.4 °F 29.8 °F 37.4 °F 100% 29.66 in 8.0 mi WNW 11.5 mph - 0.00 in Rain Light Rain
8:38 AM 37.4 °F 30.3 °F 37.4 °F 100% 29.66 in 9.0 mi WNW 10.4 mph - 0.00 in Rain Light Rain
8:56 AM 37.9 °F 29.6 °F 37.0 °F 97% 29.68 in 7.0 mi WNW 13.8 mph 21.9 mph 0.00 in Rain Light Rain
9:11 AM 39.2 °F 31.2 °F 35.6 °F 87% 29.67 in 10.0 mi WNW 13.8 mph 21.9 mph 0.00 in Rain Light Rain
9:56 AM 39.0 °F 31.0 °F 37.0 °F 93% 29.69 in 10.0 mi NW 13.8 mph - 0.01 in   Overcast
10:18 AM 39.2 °F 30.8 °F 37.4 °F 93% 29.67 in 10.0 mi WNW 15.0 mph - N/A   Overcast
10:47 AM 39.2 °F 29.8 °F 37.4 °F 93% 29.68 in 4.0 mi WNW 18.4 mph 24.2 mph 0.00 in Rain Light Rain
10:56 AM 39.9 °F 32.5 °F 37.0 °F 89% 29.70 in 8.0 mi NW 12.7 mph 21.9 mph 0.00 in   Overcast
11:17 AM 39.2 °F 31.2 °F 37.4 °F 93% 29.68 in 7.0 mi NW 13.8 mph - 0.00 in   Overcast
11:27 AM 39.2 °F 31.2 °F 37.4 °F 93% 29.69 in 1.5 mi NW 13.8 mph - 0.00 in Rain Light Rain
11:31 AM 39.2 °F 30.2 °F 37.4 °F 93% 29.68 in 4.0 mi NW 17.3 mph 23.0 mph 0.00 in Rain Light Rain
11:48 AM 39.2 °F 29.8 °F 37.4 °F 93% 29.69 in 3.0 mi WNW 18.4 mph 24.2 mph 0.00 in Rain Light Rain
11:56 AM 41.0 °F 32.8 °F 37.9 °F 89% 29.71 in 6.0 mi WNW 16.1 mph 24.2 mph 0.00 in   Overcast
12:18 PM 39.2 °F 31.2 °F 39.2 °F 100% 29.69 in 2.0 mi West 13.8 mph - 0.01 in Rain Light Rain
12:21 PM 39.2 °F 30.8 °F 37.4 °F 93% 29.70 in 1.8 mi West 15.0 mph - 0.01 in Rain Light Rain
12:23 PM 39.2 °F 30.5 °F 37.4 °F 93% 29.69 in 1.8 mi West 16.1 mph - 0.01 in Rain Light Rain
12:56 PM 39.0 °F 29.9 °F 37.0 °F 93% 29.72 in 2.0 mi WNW 17.3 mph 26.5 mph 0.02 in Rain Light Rain
1:08 PM 39.2 °F 30.2 °F 37.4 °F 93% 29.70 in 3.0 mi West 17.3 mph 24.2 mph 0.01 in   Overcast
1:20 PM 39.2 °F 30.8 °F 37.4 °F 93% 29.70 in 2.5 mi West 15.0 mph 23.0 mph 0.01 in   Overcast
1:47 PM 39.2 °F 29.8 °F 37.4 °F 93% 29.70 in 4.0 mi West 18.4 mph 23.0 mph 0.01 in   Overcast
1:56 PM 39.0 °F 30.3 °F 37.0 °F 93% 29.72 in 7.0 mi West 16.1 mph 24.2 mph 0.01 in   Overcast
2:17 PM 39.2 °F 30.2 °F 37.4 °F 93% 29.70 in 10.0 mi West 17.3 mph 24.2 mph N/A   Overcast
2:56 PM 39.9 °F 31.8 °F 37.0 °F 89% 29.73 in 10.0 mi West 15.0 mph - N/A   Overcast
3:35 PM 39.2 °F 30.2 °F 37.4 °F 93% 29.71 in 2.5 mi West 17.3 mph 28.8 mph N/A Rain Light Rain
3:44 PM 39.2 °F 29.8 °F 37.4 °F 93% 29.71 in 5.0 mi West 18.4 mph 25.3 mph 0.00 in Rain Light Rain
3:50 PM 39.2 °F 31.2 °F 37.4 °F 93% 29.71 in 5.0 mi West 13.8 mph 25.3 mph 0.00 in   Overcast
3:56 PM 39.9 °F 31.8 °F 37.0 °F 89% 29.73 in 5.0 mi WNW 15.0 mph - 0.00 in   Overcast
4:56 PM 39.0 °F 29.6 °F 37.9 °F 96% 29.75 in 4.0 mi West 18.4 mph 23.0 mph 0.00 in Rain Light Rain
5:06 PM 39.2 °F 30.8 °F 37.4 °F 93% 29.73 in 2.0 mi West 15.0 mph 24.2 mph 0.00 in Rain Light Rain
5:45 PM 39.2 °F 31.2 °F 37.4 °F 93% 29.74 in 7.0 mi West 13.8 mph - 0.00 in   Overcast
5:56 PM 39.0 °F 29.6 °F 37.0 °F 93% 29.77 in 6.0 mi West 18.4 mph 21.9 mph 0.00 in Rain Light Rain
6:56 PM 39.0 °F 30.3 °F 36.0 °F 89% 29.78 in 9.0 mi West 16.1 mph - 0.01 in   Overcast
7:56 PM 39.0 °F 30.6 °F 36.0 °F 89% 29.79 in 10.0 mi West 15.0 mph 26.5 mph N/A   Overcast
8:31 PM 39.2 °F 30.8 °F 35.6 °F 87% 29.78 in 9.0 mi West 15.0 mph - 0.00 in   Overcast
8:56 PM 39.0 °F 31.0 °F 36.0 °F 89% 29.80 in 10.0 mi West 13.8 mph - 0.00 in   Overcast
9:56 PM 39.0 °F 30.6 °F 35.1 °F 86% 29.81 in 10.0 mi WNW 15.0 mph - N/A   Overcast
10:56 PM 39.0 °F 30.3 °F 35.1 °F 86% 29.81 in 9.0 mi West 16.1 mph - N/A   Overcast
11:07 PM 39.2 °F 31.6 °F 35.6 °F 87% 29.79 in 10.0 mi West 12.7 mph - N/A   Overcast
11:56 PM 39.2 °F 31.6 °F 35.6 °F 87% 29.79 in 10.0 mi WNW 12.7 mph - N/A Rain Light Rain